Date,TemperatureHighF,TemperatureAvgF,TemperatureLowF,DewpointHighF,DewpointAvgF,DewpointLowF,HumidityHigh,HumidityAvg,HumidityLow,PressureMaxIn,PressureMinIn,WindSpeedMaxMPH,WindSpeedAvgMPH,GustSpeedMaxMPH,PrecipitationSumIn
2013-2-2,41.6,41.6,41.6,38.0,37.8,37.6,87,87,86,30.28,30.27,0,0,0,0.00
2013-2-3,46.1,43.7,40.9,42.1,40.2,37.3,88,87,86,30.31,30.19,0,0,0,0.14
2013-2-4,53.3,46.0,42.5,45.7,41.5,38.5,89,84,72,30.19,29.84,0,0,0,0.00
2013-2-5,50.9,47.0,42.5,43.1,41.2,38.7,88,80,71,29.90,29.77,0,0,0,0.04
2013-2-6,51.1,45.4,43.0,41.9,39.8,38.3,85,81,66,30.00,29.77,0,0,0,0.12
2013-2-7,51.5,43.4,34.2,41.2,36.9,30.3,86,78,68,30.20,29.76,0,0,0,0.05
2013-2-8,46.6,39.5,33.7,41.3,35.2,30.3,89,85,79,30.30,30.19,0,0,0,0.00
2013-2-9,44.5,40.6,34.6,40.2,36.8,31.3,88,86,85,30.35,30.25,0,0,0,0.08
2013-2-10,50.2,39.0,32.4,43.5,34.6,29.5,90,84,71,30.39,30.32,0,0,0,0.00
2013-2-11,46.1,42.7,40.3,40.9,38.3,36.2,87,85,81,30.34,30.30,0,0,0,0.00
2013-2-12,51.8,46.4,43.0,46.0,41.6,38.8,86,83,76,30.40,30.25,0,0,0,0.02
2013-2-13,51.5,45.7,42.1,43.7,39.9,36.6,85,80,72,30.48,30.26,0,0,0,0.00
2013-2-14,50.2,45.3,42.3,44.5,40.7,38.3,87,84,79,30.58,30.46,0,0,0,0.13
2013-2-15,56.0,45.0,39.6,46.9,40.0,35.8,87,83,68,30.57,30.16,0,0,0,0.00
2013-2-16,53.6,45.4,40.7,46.0,40.4,36.8,88,83,67,30.17,30.09,0,0,0,0.09
2013-2-17,48.2,42.6,39.8,41.9,37.7,35.8,87,83,73,30.23,30.11,0,0,0,0.03
2013-2-18,48.6,41.0,35.1,40.0,35.5,30.5,87,81,68,30.11,29.77,0,0,0,0.00
2013-2-19,50.6,39.8,33.3,39.1,33.5,29.5,88,79,61,29.99,29.75,0,0,0,0.00
2013-2-20,46.8,39.9,34.6,39.8,35.3,30.7,88,84,74,30.03,29.98,0,0,0,0.00
2013-2-21,44.1,40.8,35.8,39.7,36.7,32.2,87,85,84,30.03,29.97,0,0,0,0.14
2013-2-22,47.2,42.1,38.7,41.4,37.3,33.6,87,83,73,30.01,29.63,0,0,0,0.50
2013-2-23,52.0,43.2,38.3,40.9,36.5,33.7,86,78,59,30.33,29.84,0,0,0,0.00
2013-2-24,49.7,44.1,39.1,40.3,36.9,34.6,85,76,66,30.36,29.84,0,0,0,0.04
2013-2-25,47.9,42.7,39.2,40.3,37.1,35.3,86,81,66,30.27,29.82,0,0,0,0.48
2013-2-26,49.3,42.9,37.8,39.1,35.5,33.8,87,75,62,30.32,30.13,0,0,0,0.02
2013-2-27,49.7,43.3,39.2,41.7,37.5,34.3,86,80,71,30.30,30.15,0,0,0,0.07
2013-2-28,50.4,43.5,38.7,46.5,39.7,34.8,88,86,84,30.27,30.16,0,0,0,0.41